Radiation Dose at Monitoring Post of Fukushima Daini Nuclear Power Station
Date,Time,MP-1(microSv/h),MP-2(microSv/h),MP-3(microSv/h),MP-4(microSv/h),MP-5(microSv/h),MP-6(microSv/h),MP-7(microSv/h),Wind Direction,Wind Velocity(m/s),Rain
2021/06/04,00:00,0.170,0.154,0.245,0.237,0.234,0.132,0.081,south,11.8,No
2021/06/04,00:10,0.169,0.154,0.247,0.239,0.236,0.131,0.082,south,11.2,No
2021/06/04,00:20,0.170,0.154,0.246,0.241,0.234,0.133,0.081,south,11.8,No
2021/06/04,00:30,0.169,0.154,0.247,0.237,0.236,0.131,0.082,south,12.4,No
2021/06/04,00:40,0.169,0.154,0.247,0.240,0.234,0.133,0.081,south,12.6,Yes
2021/06/04,00:50,0.169,0.154,0.245,0.237,0.235,0.132,0.081,south-southeast,12.6,Yes
2021/06/04,01:00,0.169,0.153,0.246,0.240,0.235,0.132,0.081,south-southeast,13.7,No
2021/06/04,01:10,0.170,0.155,0.245,0.238,0.235,0.132,0.081,south-southeast,11.2,No
2021/06/04,01:20,0.168,0.154,0.247,0.240,0.235,0.131,0.081,south-southeast,11.5,No
2021/06/04,01:30,0.170,0.155,0.246,0.239,0.235,0.133,0.082,south-southeast,11.8,Yes
2021/06/04,01:40,0.169,0.154,0.247,0.239,0.238,0.131,0.082,south-southeast,11.4,Yes
2021/06/04,01:50,0.169,0.154,0.245,0.238,0.234,0.133,0.081,south-southeast,11.2,No
2021/06/04,02:00,0.169,0.154,0.247,0.239,0.237,0.133,0.082,south-southeast,11.8,No
2021/06/04,02:10,0.170,0.154,0.244,0.238,0.234,0.132,0.081,south,11.3,No
2021/06/04,02:20,0.170,0.154,0.247,0.237,0.236,0.131,0.082,south,8.9,Yes
2021/06/04,02:30,0.170,0.154,0.244,0.238,0.233,0.131,0.081,south-southeast,11.8,Yes
2021/06/04,02:40,0.169,0.154,0.245,0.236,0.234,0.131,0.082,south,12.6,No
2021/06/04,02:50,0.168,0.153,0.244,0.238,0.232,0.131,0.081,south,12.5,No
2021/06/04,03:00,0.170,0.154,0.245,0.236,0.235,0.132,0.081,south,13.7,Yes
2021/06/04,03:10,0.169,0.153,0.244,0.237,0.234,0.131,0.081,south,14.0,Yes
2021/06/04,03:20,0.170,0.153,0.244,0.235,0.234,0.132,0.082,south,13.4,Yes
2021/06/04,03:30,0.168,0.153,0.242,0.238,0.234,0.132,0.081,south-southeast,12.9,Yes
2021/06/04,03:40,0.170,0.154,0.244,0.236,0.233,0.132,0.082,south,14.7,Yes
2021/06/04,03:50,0.168,0.154,0.242,0.236,0.234,0.132,0.082,south-southeast,15.0,Yes
2021/06/04,04:00,0.169,0.154,0.244,0.234,0.232,0.132,0.082,south-southeast,14.0,Yes
2021/06/04,04:10,0.168,0.153,0.241,0.236,0.234,0.132,0.082,south,12.5,Yes
2021/06/04,04:20,0.170,0.154,0.244,0.236,0.233,0.131,0.082,south,12.6,No
2021/06/04,04:30,0.169,0.153,0.241,0.236,0.235,0.132,0.081,south,13.4,No
2021/06/04,04:40,0.169,0.154,0.243,0.234,0.233,0.131,0.081,south,13.9,Yes
2021/06/04,04:50,0.168,0.153,0.240,0.236,0.236,0.132,0.081,south,13.4,Yes
2021/06/04,05:00,0.169,0.154,0.244,0.233,0.233,0.130,0.081,south-southeast,14.2,Yes
2021/06/04,05:10,0.168,0.153,0.242,0.236,0.235,0.131,0.080,south,13.6,No
2021/06/04,05:20,0.168,0.153,0.243,0.234,0.233,0.131,0.081,south,15.3,No
2021/06/04,05:30,0.169,0.153,0.241,0.235,0.234,0.132,0.081,south-southeast,14.9,No
2021/06/04,05:40,0.168,0.153,0.244,0.234,0.233,0.131,0.081,south,13.7,Yes
2021/06/04,05:50,0.170,0.153,0.242,0.235,0.232,0.132,0.081,south,14.5,Yes
2021/06/04,06:00,0.169,0.153,0.244,0.234,0.234,0.131,0.081,south,16.1,No
2021/06/04,06:10,0.169,0.153,0.241,0.236,0.232,0.132,0.081,south,16.4,No
2021/06/04,06:20,0.168,0.153,0.243,0.234,0.233,0.132,0.082,south,15.3,Yes
2021/06/04,06:30,0.171,0.153,0.241,0.235,0.231,0.132,0.082,south-southeast,13.6,Yes
2021/06/04,06:40,0.169,0.153,0.243,0.234,0.234,0.133,0.083,south,15.3,Yes
2021/06/04,06:50,0.170,0.152,0.242,0.236,0.232,0.132,0.082,south,14.2,No
2021/06/04,07:00,0.169,0.153,0.243,0.234,0.234,0.132,0.082,south,13.6,No
2021/06/04,07:10,0.170,0.153,0.242,0.234,0.232,0.131,0.082,south,14.3,No
2021/06/04,07:20,0.169,0.153,0.243,0.235,0.233,0.132,0.082,south,13.6,No
2021/06/04,07:30,0.169,0.153,0.241,0.234,0.232,0.132,0.080,south,14.6,No
2021/06/04,07:40,0.169,0.152,0.243,0.235,0.233,0.131,0.081,south-southeast,12.4,Yes
2021/06/04,07:50,0.169,0.154,0.243,0.235,0.235,0.133,0.083,south,16.1,Yes
2021/06/04,08:00,0.171,0.156,0.245,0.239,0.233,0.134,0.083,south,14.5,Yes
2021/06/04,08:10,0.171,0.155,0.245,0.237,0.236,0.135,0.085,south-southeast,14.0,Yes
2021/06/04,08:20,0.171,0.155,0.245,0.239,0.234,0.134,0.085,south,15.0,Yes
2021/06/04,08:30,0.171,0.156,0.245,0.237,0.237,0.135,0.085,south,15.0,Yes
2021/06/04,08:40,0.174,0.157,0.247,0.242,0.236,0.136,0.087,south,14.9,Yes
2021/06/04,08:50,0.175,0.158,0.248,0.240,0.240,0.138,0.089,south-southeast,13.6,Yes
2021/06/04,09:00,0.177,0.161,0.248,0.242,0.239,0.141,0.089,south-southeast,14.2,Yes
2021/06/04,09:10,0.176,0.162,0.249,0.242,0.240,0.141,0.091,south,14.0,Yes
2021/06/04,09:20,0.178,0.162,0.249,0.243,0.238,0.142,0.091,south-southeast,12.6,Yes
2021/06/04,09:30,0.178,0.162,0.249,0.242,0.240,0.142,0.092,south-southeast,14.0,Yes
2021/06/04,09:40,0.177,0.162,0.249,0.243,0.241,0.142,0.091,south-southeast,15.1,Yes
2021/06/04,09:50,0.176,0.161,0.248,0.240,0.240,0.141,0.091,south-southeast,15.7,Yes
2021/06/04,10:00,0.176,0.161,0.249,0.241,0.241,0.141,0.091,south,15.0,Yes
2021/06/04,10:10,0.175,0.161,0.247,0.239,0.238,0.140,0.090,south,15.8,Yes
2021/06/04,10:20,0.174,0.161,0.245,0.239,0.239,0.140,0.090,south-southeast,14.2,Yes
2021/06/04,10:30,0.176,0.159,0.245,0.238,0.237,0.140,0.090,south-southeast,15.9,Yes
2021/06/04,10:40,0.175,0.161,0.245,0.239,0.239,0.140,0.089,south,16.3,Yes
2021/06/04,10:50,0.174,0.159,0.244,0.239,0.237,0.139,0.089,south,14.8,Yes
2021/06/04,11:00,0.172,0.158,0.243,0.236,0.238,0.138,0.088,south,15.6,Yes
2021/06/04,11:10,0.172,0.157,0.241,0.236,0.235,0.137,0.087,south,15.9,Yes
2021/06/04,11:20,0.170,0.157,0.242,0.235,0.236,0.136,0.087,south,15.4,Yes
2021/06/04,11:30,0.172,0.157,0.241,0.236,0.235,0.136,0.086,south-southeast,15.1,Yes
2021/06/04,11:40,0.170,0.157,0.241,0.233,0.236,0.136,0.087,south,16.7,Yes
2021/06/04,11:50,0.174,0.157,0.241,0.235,0.235,0.138,0.088,south,14.5,Yes
2021/06/04,12:00,0.171,0.158,0.241,0.234,0.236,0.137,0.088,south,13.9,Yes
2021/06/04,12:10,0.172,0.156,0.240,0.234,0.234,0.137,0.088,south,15.1,Yes
2021/06/04,12:20,0.172,0.157,0.239,0.232,0.236,0.136,0.088,south,13.1,Yes
2021/06/04,12:30,0.170,0.157,0.239,0.233,0.234,0.136,0.089,south,14.0,Yes
2021/06/04,12:40,0.172,0.158,0.239,0.232,0.235,0.137,0.090,south,16.2,Yes
2021/06/04,12:50,0.172,0.158,0.241,0.234,0.237,0.137,0.091,south-southeast,12.1,Yes
2021/06/04,13:00,0.172,0.159,0.240,0.233,0.236,0.138,0.090,south,13.1,Yes
2021/06/04,13:10,0.171,0.159,0.240,0.234,0.239,0.138,0.092,south,13.7,Yes
2021/06/04,13:20,0.173,0.158,0.238,0.234,0.235,0.138,0.091,south,13.7,Yes
2021/06/04,13:30,0.171,0.159,0.241,0.233,0.237,0.138,0.091,south,15.8,Yes
2021/06/04,13:40,0.172,0.157,0.238,0.234,0.236,0.137,0.091,south,13.9,Yes
2021/06/04,13:50,0.172,0.157,0.239,0.232,0.237,0.137,0.090,south,11.8,Yes
2021/06/04,14:00,0.171,0.157,0.237,0.232,0.236,0.136,0.090,south,13.7,Yes
2021/06/04,14:10,0.172,0.158,0.237,0.230,0.234,0.135,0.089,south,14.3,Yes
2021/06/04,14:20,0.169,0.156,0.236,0.230,0.235,0.133,0.088,south,13.4,Yes
2021/06/04,14:30,0.169,0.155,0.236,0.229,0.232,0.133,0.087,south,14.2,Yes
2021/06/04,14:40,0.167,0.154,0.235,0.227,0.233,0.132,0.087,south,16.0,Yes
2021/06/04,14:50,0.167,0.154,0.233,0.227,0.230,0.131,0.085,south,14.3,Yes
2021/06/04,15:00,0.164,0.152,0.234,0.226,0.233,0.131,0.086,south-southeast,14.8,Yes
2021/06/04,15:10,0.165,0.152,0.231,0.227,0.230,0.129,0.085,south,15.0,Yes
2021/06/04,15:20,0.164,0.152,0.233,0.226,0.231,0.130,0.085,south,15.0,Yes
2021/06/04,15:30,0.164,0.151,0.230,0.226,0.229,0.128,0.084,south,14.7,Yes
2021/06/04,15:40,0.162,0.151,0.232,0.224,0.231,0.129,0.084,south,15.1,Yes
2021/06/04,15:50,0.161,0.150,0.229,0.225,0.229,0.129,0.083,south,14.2,Yes
2021/06/04,16:00,0.160,0.150,0.230,0.222,0.229,0.128,0.084,south,14.5,Yes
2021/06/04,16:10,0.159,0.149,0.228,0.223,0.229,0.126,0.083,south,14.6,Yes
2021/06/04,16:20,0.161,0.150,0.229,0.221,0.227,0.126,0.082,south-southeast,14.2,Yes
2021/06/04,16:30,0.158,0.148,0.227,0.221,0.229,0.127,0.081,south,14.0,Yes
2021/06/04,16:40,0.158,0.149,0.226,0.221,0.227,0.126,0.082,south,13.7,Yes
2021/06/04,16:50,0.158,0.147,0.228,0.221,0.228,0.125,0.081,south,12.6,Yes
2021/06/04,17:00,0.157,0.147,0.227,0.221,0.227,0.125,0.081,south,11.5,Yes
2021/06/04,17:10,0.158,0.148,0.228,0.220,0.227,0.124,0.081,south,9.5,Yes
2021/06/04,17:20,0.157,0.148,0.227,0.221,0.229,0.125,0.082,south,6.9,Yes
2021/06/04,17:30,0.159,0.150,0.229,0.222,0.227,0.126,0.083,southwest,7.0,Yes
2021/06/04,17:40,0.157,0.149,0.225,0.220,0.230,0.127,0.084,southwest,4.3,Yes
2021/06/04,17:50,0.157,0.150,0.226,0.221,0.229,0.128,0.085,southwest,6.1,Yes
2021/06/04,18:00,0.158,0.150,0.229,0.220,0.229,0.127,0.085,southwest,4.2,Yes
2021/06/04,18:10,0.159,0.151,0.230,0.226,0.232,0.128,0.085,southwest,4.9,No
2021/06/04,18:20,0.160,0.149,0.230,0.223,0.228,0.128,0.084,west-southwest,4.5,No
2021/06/04,18:30,0.159,0.149,0.229,0.225,0.232,0.126,0.082,west-northwest,4.8,No
2021/06/04,18:40,0.158,0.148,0.230,0.224,0.229,0.126,0.082,northwest,3.6,No
2021/06/04,18:50,0.160,0.148,0.230,0.224,0.228,0.127,0.082,north-northwest,4.0,Yes
2021/06/04,19:00,0.160,0.149,0.229,0.227,0.232,0.127,0.082,northwest,5.7,No
2021/06/04,19:10,0.160,0.149,0.231,0.224,0.228,0.127,0.082,northwest,5.0,No
2021/06/04,19:20,0.159,0.149,0.229,0.225,0.230,0.125,0.081,northwest,5.7,Yes
2021/06/04,19:30,0.160,0.148,0.232,0.225,0.230,0.126,0.081,northwest,5.9,Yes
2021/06/04,19:40,0.161,0.149,0.230,0.223,0.227,0.126,0.081,northwest,6.2,Yes
2021/06/04,19:50,0.160,0.148,0.233,0.228,0.232,0.127,0.082,west-northwest,7.3,Yes
2021/06/04,20:00,0.162,0.147,0.230,0.223,0.229,0.127,0.082,northwest,4.6,Yes
2021/06/04,20:10,0.160,0.149,0.232,0.226,0.231,0.126,0.082,northwest,3.2,Yes
2021/06/04,20:20,0.162,0.149,0.232,0.226,0.230,0.128,0.083,northwest,3.7,Yes
2021/06/04,20:30,0.161,0.150,0.232,0.225,0.231,0.128,0.082,north,2.5,No
2021/06/04,20:40,0.161,0.149,0.232,0.227,0.232,0.127,0.082,north,3.0,No
2021/06/04,20:50,0.162,0.149,0.230,0.224,0.228,0.126,0.081,north,3.5,No
2021/06/04,21:00,0.159,0.147,0.230,0.225,0.230,0.126,0.080,northwest,3.0,No
2021/06/04,21:10,0.162,0.148,0.229,0.223,0.229,0.126,0.081,northwest,2.8,No
2021/06/04,21:20,0.159,0.147,0.232,0.225,0.229,0.126,0.080,north-northwest,1.8,No
2021/06/04,21:30,0.161,0.148,0.228,0.223,0.230,0.125,0.079,north-northwest,1.9,No
2021/06/04,21:40,0.160,0.147,0.231,0.223,0.227,0.124,0.080,north-northwest,2.4,No
2021/06/04,21:50,0.160,0.148,0.230,0.224,0.230,0.125,0.079,north,2.5,No
2021/06/04,22:00,0.161,0.147,0.230,0.223,0.228,0.125,0.080,north-northwest,2.5,No
2021/06/04,22:10,0.161,0.148,0.232,0.225,0.230,0.126,0.080,north-northwest,2.7,Yes
2021/06/04,22:20,0.161,0.147,0.231,0.224,0.230,0.126,0.080,north,2.1,No
2021/06/04,22:30,0.161,0.148,0.231,0.227,0.229,0.127,0.079,north-northwest,2.6,Yes
2021/06/04,22:40,0.163,0.150,0.231,0.226,0.232,0.127,0.081,northwest,2.2,No
2021/06/04,22:50,0.162,0.149,0.232,0.225,0.230,0.126,0.082,north-northwest,1.6,No
2021/06/04,23:00,0.163,0.149,0.230,0.227,0.231,0.127,0.081,north-northwest,0.7,No
2021/06/04,23:10,0.161,0.147,0.232,0.225,0.229,0.127,0.081,northwest,1.1,Yes
2021/06/04,23:20,0.163,0.150,0.232,0.227,0.230,0.128,0.082,northwest,1.0,Yes
2021/06/04,23:30,0.165,0.152,0.235,0.227,0.234,0.129,0.084,north-northwest,1.6,Yes
2021/06/04,23:40,0.168,0.153,0.235,0.230,0.234,0.131,0.086,northwest,1.4,No
2021/06/04,23:50,0.166,0.153,0.237,0.229,0.235,0.132,0.085,north-northwest,2.1,No
